Location: Arsuri
(45.4500°N, 23.2667°E)
Time: 11:29:07
(UTC+00:00)

Daily predictions for brighter satellites

Satellite Brightness Start Highest point End
(mag) Time Altitude Azimuth Time Altitude Azimuth Time Altitude Azimuth
USA 59 Rocket 0.5 17:03:29 10° NNW 17:07:11 47° NE 17:12:11 10° ESE
Cosmos 2061 Rocket 4.1 17:02:53 10° S 17:09:18 79° E 17:15:45 10° N
SAR-Lupe-2 3.8 17:06:20 10° SSE 17:09:46 48° ENE 17:13:14 10° N
Landsat 7 4.0 17:05:43 10° S 17:10:24 78° WSW 17:15:07 10° NNW
COSMOS 2428 2.8 17:06:50 10° S 17:12:23 57° ESE 17:18:00 10° NNE
Meteor PRIRODA 3.9 17:12:27 10° SE 17:15:32 37° ENE 17:18:36 10° N
Cosmos 2016 Rocket 4.4 17:10:10 10° SSW 17:16:13 68° W 17:22:20 10° N
Cosmos 2292 Rocket 4.2 17:13:17 10° NNW 17:16:47 45° W 17:19:43 10° SSW
Cosmos 1536 4.1 17:15:24 10° SE 17:18:07 19° E 17:20:53 10° NE
Cosmos 1842 4.0 17:15:15 10° NNE 17:18:27 29° ENE 17:21:38 10° SE
Cosmos 1818 3.9 17:13:25 10° SW 17:18:52 73° NW 17:24:22 10° NNE
Cosmos 1707 3.6 17:19:26 10° NNE 17:22:29 26° ENE 17:25:30 10° SE
Okean O Rocket 3.2 17:20:30 10° ESE 17:23:25 18° ENE 17:26:20 10° NNE
Tsikada Rocket 4.2 17:18:32 10° N 17:24:50 80° W 17:31:11 10° S
Meteor 2-4 Rocket 4.3 17:19:00 10° NNW 17:24:55 70° W 17:30:42 10° S
Cosmos 2278 Rocket 2.6 17:19:36 10° NNW 17:25:02 44° ENE 17:30:26 10° SE
CZ-4B DEB 4.3 17:21:08 10° SSE 17:26:31 58° ENE 17:31:55 10° N
NOSS 2-1 (C) 3.6 17:23:40 10° NW 17:27:28 70° NE 17:32:42 10° SE
DMSP B5D1-3 4.5 17:23:42 10° NNE 17:28:48 80° ESE 17:33:52 10° S
CZ-4B R/B 3.8 17:26:12 10° SE 17:31:10 37° ENE 17:36:04 10° N
CZ-4 R/B 1.5 17:30:13 10° SSE 17:33:54 49° ENE 17:37:39 10° N
Cosmos 44 Rocket 4.3 17:30:18 10° NW 17:34:49 44° WSW 17:39:14 10° S
TSX-5 3.6 17:32:38 10° NW 17:35:44 64° WSW 17:39:00 10° SSE
Cosmos 1766 Rocket 3.5 17:31:50 10° S 17:36:09 69° E 17:40:31 10° NNE
ADEOS 3.6 17:31:36 10° SSE 17:36:49 85° ENE 17:42:04 10° NNW
Resurs 01 Rocket 2.2 17:33:24 10° SE 17:37:31 39° ENE 17:41:38 10° N
GEOS 3 Rocket 3.8 17:32:34 10° SE 17:37:41 61° NE 17:42:47 10° NNW
USA 306 3.2 17:35:00 10° WSW 17:37:55 46° NNW 17:41:23 10° NE
Cosmos 2360 Rocket 4.5 17:34:29 10° WSW 17:39:11 26° NW 17:43:54 10° N
PAYLOAD B 4.4 17:33:55 10° SSE 17:39:23 58° ENE 17:44:54 10° N
YAOGAN 1 4.0 17:36:20 10° SSW 17:40:22 40° W 17:44:26 10° NNW
CZ-4B R/B 3.4 17:35:48 10° SSE 17:40:32 87° W 17:45:23 10° NNW
Cosmos 1814 Rocket 4.0 17:35:19 10° SSW 17:40:37 81° ESE 17:45:53 10° NNE
Helios 1A 2.8 17:37:31 10° NNE 17:41:35 66° ESE 17:45:36 10° S
Kosmos-1783 4.4 17:40:48 10° WSW 17:43:01 28° NW 17:44:38 10° NNE
SPOT 5 4.4 17:43:06 14° E 17:44:40 16° ENE 17:47:27 10° NNE
USA 290 2.3 17:41:38 10° NNW 17:44:55 61° ENE 17:47:32 15° SE
Okean-O 4.2 17:45:39 15° E 17:47:06 18° ENE 17:50:02 10° NNE
USA 186 2.1 17:45:11 15° SE 17:47:38 44° ENE 17:50:45 10° N
Cosmos 1743 4.1 17:44:19 10° SSW 17:47:40 39° WNW 17:51:03 10° N
SPOT 1/Viking Rocket 3.7 17:42:57 10° S 17:48:08 81° WSW 17:53:20 10° NNW
KORONAS-FOTON 3.6 17:45:43 10° N 17:49:26 76° E 17:53:05 10° SSE
Cosmos 1408 Rocket 4.4 17:46:38 10° SSE 17:50:24 29° E 17:54:14 10° NNE
Cosmos 2237 Rocket 2.4 17:46:16 10° S 17:51:37 47° ESE 17:56:59 10° NE
CZ-4B R/B 2.7 17:50:12 10° SSE 17:54:02 82° ENE 17:58:05 10° NNW
CSL-04 Rocket 3.8 17:50:07 11° SE 17:55:08 52° ENE 18:00:17 10° N
SL-08 R/B 3.7 17:50:33 10° N 17:55:28 72° WNW 18:00:21 10° SSW
ISS -3.8 17:52:15 10° SW 17:55:34 67° SSE 17:57:45 20° ENE
Cosmos 2219 Rocket 4.0 17:51:23 10° WSW 17:56:30 34° NW 18:01:38 10° NNE
Meteor 1-14 Rocket 4.1 17:54:12 10° S 17:59:43 87° E 18:05:18 10° NNE
Aureole 1 4.4 17:57:48 10° NNW 18:00:54 60° ENE 18:02:47 25° SE
Meteor 1-11 Rocket 3.9 17:57:28 10° SSE 18:02:51 49° E 18:08:11 10° NNE
NOSS 2-1 (E) 4.1 18:00:47 10° NW 18:04:44 61° SW 18:09:34 13° SSE
Cosmos 1328 Rocket 4.2 18:00:49 10° NNW 18:05:02 56° W 18:09:14 10° S
Cosmos 1356 Rocket 3.4 18:03:45 10° N 18:07:57 89° W 18:11:52 12° S
Cosmos 1674 4.0 18:05:10 10° NNW 18:08:14 35° W 18:11:17 10° SSW
Lacrosse 4 Rocket 3.7 18:05:59 10° NW 18:09:28 24° WSW 18:12:53 10° SSW
SJ-6B 4.0 18:06:46 10° SSW 18:10:10 39° W 18:13:35 10° NNW
Cosmos 158 Rocket 3.9 18:06:04 10° S 18:10:44 49° ESE 18:15:26 10° NNE
NOSS 2-1 (D) 4.5 18:08:31 10° NW 18:12:24 49° SW 18:17:05 13° SSE
BREEZE-M DEB (TANK) 4.3 18:09:45 10° WNW 18:12:37 49° N 18:16:40 19° E
CARTOSAT-1 3.4 18:09:12 12° SSE 18:13:03 90° E 18:17:20 10° NNW
Meteor 1-4 Rocket 3.6 18:13:23 10° NNW 18:15:48 31° W 18:18:10 10° SSW
ATLAS CENTAUR R/B 0.9 18:12:24 10° SSW 18:15:52 60° ESE 18:19:32 10° NE
Cosmos 1805 Rocket 4.1 18:15:48 33° ESE 18:16:27 35° E 18:20:24 10° NNE
In-Cosmos 22 4.1 18:14:19 10° N 18:20:02 78° ENE 18:24:24 17° SSE
Cosmos 1980 3.6 18:15:24 10° SSW 18:21:04 85° ESE 18:26:48 10° NNE
Cosmos 2369 Rocket 3.7 18:17:32 10° N 18:21:44 20° NE 18:23:25 18° ENE
Cosmos 1733 2.9 18:20:43 10° S 18:24:09 80° W 18:27:37 10° N
NOSS 0 Rocket 4.3 18:21:12 10° SW 18:27:24 70° WNW 18:33:40 10° NNE
ACS3 Solar Sail 1.9 18:24:20 20° SSE 18:28:56 71° ENE 18:35:20 10° N
Cosmos 1943 Rocket 2.1 18:24:02 10° NNW 18:29:35 90° NE 18:32:34 29° SSE
USA 276 2.3 18:28:01 10° WNW 18:30:24 55° W 18:30:24 55° W
CSL-04 Debris 4.3 18:26:01 13° S 18:30:59 76° WSW 18:36:30 10° NNW
SWARM A 4.3 18:29:55 34° S 18:31:21 85° W 18:34:53 10° N
Nadezhda 4 Rocket 3.9 18:25:26 10° N 18:31:44 87° E 18:37:05 15° S
Sich 1 3.0 18:30:57 44° SE 18:31:57 56° E 18:36:10 10° NNE
Cosmos 2298 Rocket 4.2 18:29:19 10° NNW 18:34:30 54° ENE 18:35:58 41° ESE
ERS-1 Rocket 3.8 18:34:08 30° ENE 18:34:31 31° ENE 18:38:54 10° N
Terra 3.0 18:35:11 25° ENE 18:35:11 25° ENE 18:38:51 10° N
Cosmos 1570 Rocket 4.0 18:30:01 10° SSW 18:35:18 88° WNW 18:40:36 10° NNE
Cosmos 2150 Rocket 4.1 18:31:11 10° NNW 18:36:16 54° ENE 18:37:30 43° ESE
BlueWalker 3 3.8 18:33:49 10° W 18:36:45 22° SW 18:37:58 18° SSW
USA 32 4.0 18:31:59 10° N 18:37:11 60° E 18:38:54 40° SE
Cosmos 2026 Rocket 4.1 18:33:06 10° N 18:39:12 55° ENE 18:41:19 38° SE
Cosmos 1092 Rocket 4.1 18:33:23 10° N 18:39:36 54° ENE 18:41:49 37° SE
Cosmos 1975 4.5 18:43:58 21° NE 18:43:58 21° NE 18:45:32 10° NNE
Ariane Rocket 4.3 18:44:13 23° ENE 18:44:13 23° ENE 18:47:56 10° N
Cosmos 836 Rocket 4.4 18:40:43 10° SSW 18:45:59 76° ESE 18:51:18 10° NNE
Cosmos 1805 3.4 18:47:20 54° NNE 18:47:20 54° NNE 18:50:16 10° N
Cosmos 1315 Rocket 2.9 18:44:34 10° NNW 18:48:33 73° W 18:49:14 56° SSW
Cosmos 1464 Rocket 4.5 18:42:32 10° SSW 18:48:47 63° WNW 18:55:08 10° N
SL-16 R/B 2.9 18:53:31 35° ENE 18:53:31 35° ENE 18:57:19 10° NE
Cosmos 1125 Rocket 3.9 18:47:52 10° NNW 18:52:58 58° WSW 18:55:24 30° S
Cosmos 1634 Rocket 4.1 18:51:55 43° SE 18:53:29 54° E 18:59:37 10° NNE
USA 59 Rocket 2.2 18:53:09 10° WNW 18:56:39 24° WSW 19:00:06 14° SSW
Okean O Rocket 2.2 18:57:42 36° SSW 18:59:15 55° W 19:03:37 10° NNW
Cosmos 1656 Rocket 4.1 18:54:07 10° NNW 18:59:32 44° ENE 18:59:58 44° ENE
IRS-1C Rocket 4.2 19:04:02 56° ENE 19:04:12 57° ENE 19:09:22 10° N
Cosmos 773 Rocket 3.8 19:05:45 69° SE 19:06:10 73° ESE 19:11:27 10° NNE
SL-14 R/B 3.8 19:02:26 10° N 19:05:27 54° NNW 19:05:27 54° NNW
CZ-4 R/B 4.2 19:06:44 10° WSW 19:08:43 14° W 19:10:43 10° WNW
Cosmos 2278 Rocket 3.7 19:04:01 10° NW 19:08:55 31° WSW 19:12:39 15° SSW
Cosmos 2034 Rocket 4.4 19:04:55 10° SSW 19:11:03 62° W 19:17:11 10° N
Cosmos 1500 Rocket 4.4 19:10:44 25° SW 19:12:55 48° WNW 19:17:10 10° N
Resurs 01 Rocket 3.8 19:10:36 10° SW 19:14:03 22° W 19:17:32 10° NW
Cosmos 1627 Rocket 4.4 19:08:30 10° N 19:14:49 84° W 19:16:37 49° S
MetOp-B 4.1 19:14:53 65° S 19:15:40 82° WSW 19:21:05 10° NNW
NOSS 3-3 (C) 3.9 19:11:39 10° SW 19:17:01 73° NW 19:23:24 10° NE
Cosmos 2228 Rocket 3.8 19:14:32 10° N 19:17:55 46° NNE 19:17:55 46° NNE
SPOT 3 Rocket 4.3 19:20:19 39° NE 19:20:19 39° NE 19:24:15 10° N
Cosmos 1743 Rocket 4.1 19:19:19 54° W 19:19:36 55° WNW 19:23:53 10° N
CRYOSAT 2 4.4 19:16:47 10° N 19:21:41 74° W 19:21:56 72° WSW
SPOT 5 3.0 19:22:14 62° WSW 19:22:15 62° WSW 19:26:43 10° NNW
Okean-O 3.2 19:23:05 53° W 19:23:05 53° W 19:27:22 10° NNW
USA 267 4.1 19:21:02 29° ENE 19:23:34 40° NNE 19:29:33 10° NW
NOSS 3-3 (A) 4.3 19:26:01 10° SW 19:31:21 57° NW 19:37:38 10° NE
ISS -1.0 19:29:28 10° W 19:30:43 19° WNW 19:30:43 19° WNW
Cosmos 2279 Rocket 3.9 19:35:27 72° ENE 19:35:27 72° ENE 19:41:18 10° NNE
Cosmos 2237 Rocket 3.9 19:30:55 10° WSW 19:35:51 31° NW 19:40:49 10° N
Cosmos 1607 3.9 19:32:18 10° SW 19:38:47 84° NW 19:45:17 10° NE
MOS 1 Rocket 4.1 19:45:39 51° W 19:45:39 51° W 19:50:43 10° NNW
Cosmos 2297 3.9 19:42:12 10° NNW 19:47:04 68° NNW 19:47:04 68° NNW
Spot 2 Rocket 4.1 19:50:58 52° NNW 19:50:58 52° NNW 19:54:47 10° NNW
ATLAS CENTAUR R/B 3.9 19:51:09 10° W 19:53:38 17° NW 19:54:53 15° NNW
NOSS 3-4 (A) 3.7 19:50:05 10° NW 19:57:00 84° NE 19:57:11 83° E
NOSS 3-4 (C) 3.7 19:50:11 10° NW 19:57:06 84° NE 19:57:17 83° E
Cosmos 2369 Rocket 2.8 20:00:43 10° NNW 20:05:12 56° NW 20:05:12 56° NW
Terra 3.4 20:13:52 31° WNW 20:13:52 31° WNW 20:16:49 10° NNW
ERS-1 Rocket 4.4 20:14:03 33° WNW 20:14:03 33° WNW 20:17:47 10° NNW
ACS3 Solar Sail 3.9 20:09:35 13° SW 20:13:32 21° W 20:18:16 10° NW
Ariane Rocket 4.4 20:24:21 34° NW 20:24:21 34° NW 20:27:30 10° NNW
SL-16 R/B 3.7 20:35:16 31° WNW 20:36:11 33° NW 20:41:18 10° N
ATLAS 2AS CENTAUR R/B 4.4 20:42:16 10° NNW 20:47:37 23° NNE 20:49:08 21° NE
USA 267 4.1 21:08:22 45° NW 21:08:22 45° NW 21:12:41 10° NW
Cosmos 2344 4.3 21:08:52 10° NW 21:16:50 56° NE 21:17:16 55° NE
Cosmos 1980 Rocket 4.5 22:08:14 10° N 22:10:30 19° NNE 22:10:30 19° NNE
USA 215 4.5 22:08:26 10° NE 22:12:42 36° NNE 22:12:42 36° NNE
ATLAS 2AS CENTAUR R/B 4.1 22:33:05 10° NW 22:36:31 31° NNW 22:36:31 31° NNW
Cosmos 2082 Rocket 4.2 23:25:38 23° NE 23:25:38 23° NE 23:27:46 10° NE
SL-16 R/B 4.0 23:33:18 10° N 23:37:43 27° NE 23:37:43 27° NE
Resurs 1-4 Rocket 4.1 23:42:15 10° NE 23:44:45 22° ENE 23:44:45 22° ENE
SL-16 R/B 4.4 23:51:12 16° E 23:54:33 25° ENE 23:59:29 10° N
